C6053 KMOB-KMOB

Flight info

Callsign C6053
Flight time 0h 17m
Altitude 5000
Route 2R5
Aircraft H60/L-V/N

Departure

Time 2026-04-27 22:29
Airport Mobile Regional Airport (KMOB)

Arrival

Time 2026-04-27 22:47
Airport Mobile Regional Airport (KMOB)
Time Latitude Longitude Altitude Speed Heading
2026-04-27 22:05 30.69405 -88.24298 218 ft 0 kts 358°
2026-04-27 22:18 30.69411 -88.24298 219 ft 1 kts 351°
2026-04-27 22:18 30.69421 -88.24302 219 ft 4 kts 319°
2026-04-27 22:18 30.69406 -88.24347 218 ft 8 kts 233°
2026-04-27 22:19 30.69399 -88.24390 218 ft 6 kts 303°
2026-04-27 22:19 30.69445 -88.24437 220 ft 13 kts 315°
2026-04-27 22:19 30.69466 -88.24566 220 ft 18 kts 263°
2026-04-27 22:19 30.69452 -88.24686 219 ft 12 kts 259°
2026-04-27 22:20 30.69386 -88.24695 220 ft 12 kts 144°
2026-04-27 22:20 30.69370 -88.24682 220 ft 0 kts 144°
2026-04-27 22:20 30.69369 -88.24681 220 ft 0 kts 144°
2026-04-27 22:21 30.69283 -88.24611 235 ft 38 kts 146°
2026-04-27 22:21 30.68924 -88.24315 246 ft 86 kts 148°
2026-04-27 22:21 30.68421 -88.23890 250 ft 83 kts 143°
2026-04-27 22:21 30.68251 -88.23736 319 ft 6 kts 135°
2026-04-27 22:22 30.68215 -88.23711 309 ft 11 kts 135°
2026-04-27 22:22 30.68186 -88.23680 522 ft 2 kts 134°
2026-04-27 22:22 30.68179 -88.23661 596 ft 3 kts 133°
2026-04-27 22:22 30.68165 -88.23645 659 ft 3 kts 132°
2026-04-27 22:23 30.68153 -88.23628 722 ft 3 kts 132°
2026-04-27 22:23 30.68140 -88.23611 786 ft 3 kts 132°
2026-04-27 22:23 30.68127 -88.23594 837 ft 3 kts 132°
2026-04-27 22:23 30.68114 -88.23577 897 ft 3 kts 132°
2026-04-27 22:24 30.68100 -88.23560 946 ft 3 kts 132°
2026-04-27 22:24 30.68087 -88.23542 966 ft 3 kts 133°
2026-04-27 22:24 30.68073 -88.23525 966 ft 3 kts 133°
2026-04-27 22:24 30.68059 -88.23507 965 ft 3 kts 133°
2026-04-27 22:25 30.68045 -88.23490 969 ft 3 kts 133°
2026-04-27 22:25 30.68031 -88.23472 984 ft 3 kts 133°
2026-04-27 22:25 30.68017 -88.23455 992 ft 3 kts 133°
2026-04-27 22:25 30.68003 -88.23437 993 ft 3 kts 132°
2026-04-27 22:26 30.67989 -88.23419 998 ft 3 kts 132°
2026-04-27 22:26 30.67975 -88.23402 1012 ft 3 kts 132°
2026-04-27 22:26 30.67961 -88.23383 1006 ft 3 kts 131°
2026-04-27 22:26 30.67948 -88.23365 1018 ft 3 kts 131°
2026-04-27 22:27 30.67933 -88.23347 1012 ft 3 kts 131°
2026-04-27 22:27 30.67921 -88.23330 1011 ft 3 kts 131°
2026-04-27 22:27 30.67909 -88.23315 1012 ft 3 kts 131°
2026-04-27 22:27 30.67897 -88.23300 1013 ft 3 kts 131°
2026-04-27 22:28 30.67885 -88.23284 1023 ft 3 kts 131°
2026-04-27 22:28 30.67873 -88.23269 1041 ft 2 kts 132°
2026-04-27 22:28 30.67862 -88.23254 1067 ft 3 kts 132°
2026-04-27 22:28 30.67850 -88.23239 1084 ft 3 kts 131°
2026-04-27 22:29 30.67838 -88.23223 1097 ft 3 kts 131°
2026-04-27 22:29 30.67825 -88.23206 1119 ft 3 kts 131°
2026-04-27 22:29 30.67743 -88.23112 1073 ft 65 kts 133°
2026-04-27 22:29 30.67082 -88.22705 840 ft 131 kts 159°
2026-04-27 22:30 30.66160 -88.22741 696 ft 136 kts 197°
2026-04-27 22:30 30.65300 -88.23228 755 ft 142 kts 201°
2026-04-27 22:30 30.64389 -88.23689 709 ft 147 kts 197°
2026-04-27 22:30 30.63371 -88.23806 642 ft 141 kts 178°
2026-04-27 22:31 30.62455 -88.24014 809 ft 137 kts 194°
2026-04-27 22:31 30.61523 -88.24412 761 ft 147 kts 198°
2026-04-27 22:31 30.60583 -88.24844 707 ft 142 kts 199°
2026-04-27 22:31 30.59634 -88.25217 671 ft 145 kts 194°
2026-04-27 22:32 30.58662 -88.25508 619 ft 142 kts 191°
2026-04-27 22:32 30.57702 -88.25702 642 ft 140 kts 188°
2026-04-27 22:32 30.56727 -88.25897 629 ft 143 kts 186°
2026-04-27 22:32 30.55790 -88.26041 792 ft 131 kts 185°
2026-04-27 22:33 30.54865 -88.26121 880 ft 131 kts 184°
2026-04-27 22:33 30.53958 -88.26296 777 ft 138 kts 183°
2026-04-27 22:33 30.53324 -88.26410 772 ft 143 kts 185°
2026-04-27 22:33 30.52306 -88.26503 650 ft 147 kts 175°
2026-04-27 22:34 30.51313 -88.26500 421 ft 133 kts 180°
2026-04-27 22:34 30.50448 -88.27021 167 ft 85 kts 230°
2026-04-27 22:34 30.50291 -88.27328 144 ft 51 kts 229°
2026-04-27 22:34 30.50081 -88.27744 164 ft 61 kts 228°
2026-04-27 22:35 30.49863 -88.28180 232 ft 66 kts 232°
2026-04-27 22:35 30.49519 -88.28511 255 ft 66 kts 200°
2026-04-27 22:35 30.49050 -88.28192 697 ft 97 kts 154°
2026-04-27 22:35 30.48550 -88.27614 1063 ft 97 kts 104°
2026-04-27 22:36 30.48833 -88.26962 1313 ft 89 kts 65°
2026-04-27 22:36 30.49201 -88.26345 680 ft 102 kts 66°
2026-04-27 22:36 30.49595 -88.25701 706 ft 96 kts 60°
2026-04-27 22:36 30.50179 -88.25447 572 ft 91 kts 322°
2026-04-27 22:37 30.50386 -88.26009 590 ft 72 kts 291°
2026-04-27 22:37 30.50519 -88.26535 282 ft 60 kts 284°
2026-04-27 22:37 30.50444 -88.26961 239 ft 46 kts 242°
2026-04-27 22:37 30.50385 -88.27143 149 ft 5 kts 240°
2026-04-27 22:38 30.50377 -88.27155 146 ft 8 kts 240°
2026-04-27 22:38 30.50217 -88.27468 219 ft 90 kts 231°
2026-04-27 22:38 30.49810 -88.28258 317 ft 128 kts 229°
2026-04-27 22:38 30.49244 -88.28559 777 ft 85 kts 166°
2026-04-27 22:39 30.48612 -88.28211 868 ft 113 kts 147°
2026-04-27 22:39 30.48289 -88.27446 1126 ft 101 kts 97°
2026-04-27 22:39 30.48820 -88.26945 2118 ft 89 kts 49°
2026-04-27 22:39 30.49321 -88.26598 717 ft 81 kts 42°
2026-04-27 22:40 30.49826 -88.26131 560 ft 104 kts 53°
2026-04-27 22:40 30.50432 -88.25945 875 ft 97 kts 347°
2026-04-27 22:40 30.50937 -88.26407 647 ft 93 kts 253°
2026-04-27 22:40 30.50511 -88.26852 257 ft 65 kts 229°
2026-04-27 22:41 30.50365 -88.27226 170 ft 39 kts 226°
2026-04-27 22:41 30.50197 -88.27508 215 ft 73 kts 226°
2026-04-27 22:41 30.50131 -88.28276 332 ft 73 kts 262°
2026-04-27 22:41 30.50532 -88.29052 315 ft 143 kts 322°
2026-04-27 22:42 30.51529 -88.29234 419 ft 145 kts
2026-04-27 22:42 30.52593 -88.29201 539 ft 162 kts
2026-04-27 22:42 30.53714 -88.29225 669 ft 160 kts
2026-04-27 22:42 30.54864 -88.29351 716 ft 179 kts
2026-04-27 22:43 30.56188 -88.29527 645 ft 200 kts 356°
2026-04-27 22:43 30.57596 -88.29701 618 ft 203 kts 354°
2026-04-27 22:43 30.59026 -88.29887 581 ft 207 kts 354°
2026-04-27 22:43 30.60453 -88.30033 599 ft 207 kts 358°
2026-04-27 22:44 30.61844 -88.30018 641 ft 196 kts
2026-04-27 22:44 30.63116 -88.29542 437 ft 199 kts 48°
2026-04-27 22:44 30.64145 -88.28555 527 ft 186 kts 42°
2026-04-27 22:44 30.65198 -88.27635 581 ft 192 kts 43°
2026-04-27 22:45 30.66243 -88.26722 669 ft 190 kts 42°
2026-04-27 22:45 30.67339 -88.25843 663 ft 194 kts 40°
2026-04-27 22:45 30.68456 -88.24962 620 ft 194 kts 41°
2026-04-27 22:45 30.69633 -88.24146 509 ft 200 kts 26°
2026-04-27 22:46 30.70865 -88.24295 515 ft 156 kts 336°
2026-04-27 22:46 30.71602 -88.25061 647 ft 145 kts 290°
2026-04-27 22:46 30.71196 -88.25708 470 ft 110 kts 181°
2026-04-27 22:46 30.70491 -88.25584 333 ft 102 kts 154°
2026-04-27 22:47 30.69939 -88.25149 245 ft 86 kts 146°
2026-04-27 22:47 30.69729 -88.24964 254 ft 9 kts 135°
2026-04-27 22:47 30.69690 -88.24942 218 ft 6 kts 146°
2026-04-27 22:47 30.69675 -88.24928 216 ft 1 kts 143°
2026-04-27 22:48 30.69634 -88.24894 217 ft 12 kts 147°
2026-04-27 22:48 30.69580 -88.24857 218 ft 6 kts 143°
2026-04-27 22:48 30.69492 -88.24782 219 ft 22 kts 144°
2026-04-27 22:48 30.69458 -88.24639 220 ft 22 kts 83°
2026-04-27 22:49 30.69475 -88.24479 220 ft 18 kts 82°
2026-04-27 22:49 30.69518 -88.24398 221 ft 5 kts 162°
2026-04-27 22:49 30.69494 -88.24393 220 ft 0 kts 166°